Temperature
5 4 4 5 5 6 6 6 6 6 6 6 6 6 6 6 6 6 6 7 8 8 8 9 9 10 10 10 10 10 10 10 10 10 10 11 11 11 11 11 11 11 11 11
4 4 5 5 5 5 5 6 5 5 6 6 6 5 6 6 6 6 6 6 7 7 8 9 9 9 9 10 10 10 10 10 10 10 10 10 10 10 10 10 10 10 10 10
4 5 6 6 5 6 5 5 5 5 5 5 6 6 6 6 6 6 6 6 6 6 7 8 8 9 9 9 9 9 9 9 9 10 10 10 10 10 10 10 10 10 10 10
4 5 5 5 5 6 5 6 6 5 5 5 5 6 6 6 5 5 5 6 6 6 6 7 8 8 8 8 8 8 8 9 9 9 9 9 9 9 9 10 10 10 10 10
4 4 5 5 5 5 5 5 5 5 5 4 4 5 5 5 5 5 5 5 6 6 6 6 7 7 8 8 8 8 8 8 8 8 8 8 8 9 9 9 9 10 10 9
4 4 5 5 5 5 5 5 5 4 4 5 4 4 5 4 5 5 4 5 5 6 6 6 6 7 7 7 7 8 7 8 8 8 8 8 8 8 8 8 9 9 9 9
4 4 4 5 5 5 5 4 4 5 4 4 4 4 4 4 4 4 4 5 5 5 6 6 6 6 6 6 7 7 7 7 7 7 7 7 7 7 7 8 8 8 8 8
4 4 4 4 4 4 4 4 5 5 5 4 3 4 4 3 4 4 4 4 5 5 5 5 5 5 5 6 6 6 6 6 6 6 7 7 7 7 7 7 7 7 7 8
3 4 4 4 4 4 4 3 3 3 2 3 3 3 3 3 3 3 3 4 4 4 5 5 5 5 5 5 5 5 5 6 6 6 6 6 6 6 6 6 7 7 7 7
3 3 3 3 4 4 3 2 2 3 4 4 4 3 4 3 3 3 2 3 3 4 4 4 5 4 4 4 4 5 5 5 5 5 5 5 5 6 6 6 6 6 7 7
2 2 3 3 3 3 3 2 2 1 2 3 4 5 3 3 3 2 2 3 3 4 4 4 4 4 4 4 4 4 4 4 4 5 5 5 5 5 5 5 6 6 6 6
1 1 1 2 2 2 2 2 2 3 2 1 2 4 3 1 2 2 2 3 3 3 3 3 3 3 3 3 3 3 4 4 4 4 4 4 4 5 5 5 5 5 6 6
1 1 2 3 3 2 2 1 1 1 0 0 2 4 2 1 1 2 2 2 3 3 3 3 3 3 3 3 3 3 3 3 3 3 3 4 4 4 4 5 5 5 5 5
2 0 2 4 3 1 1 1 1 1 1 1 1 3 2 1 1 1 2 2 2 2 2 2 2 2 2 2 2 2 2 3 3 3 3 3 3 3 4 4 4 5 5 5
1 0 -0 0 1 1 1 1 1 1 1 1 2 1 2 1 0 1 1 1 1 1 1 1 1 1 1 1 1 1 2 2 2 2 2 3 3 3 3 4 4 4 4 4
-1 -0 -0 0 0 0 1 1 1 1 1 0 1 1 1 1 1 0 0 1 0 1 1 1 1 1 1 1 1 1 1 1 2 2 2 2 2 3 3 3 3 3 4 4
-2 -1 -0 0 -0 1 1 1 0 0 -1 -0 1 1 -0 -1 -1 -0 0 0 0 0 0 0 0 0 0 0 0 0 1 1 1 1 2 2 2 2 2 3 3 3 3 3
-2 -2 -2 -1 0 2 3 -0 -0 -1 -1 -1 -1 -1 -1 -0 0 1 1 1 0 0 0 -0 -0 -0 -0 -0 -0 -0 0 1 1 1 1 1 2 2 2 2 2 2 2 2
-2 -2 -2 -2 -1 0 1 -0 -1 -1 -1 -1 -1 -1 -1 -1 -0 0 1 1 0 0 -0 -0 -0 -1 -1 -1 -1 -0 -0 0 0 1 1 1 1 1 1 2 2 2 2 2
-3 -3 -3 -2 -0 1 2 -0 -1 -1 -0 -1 -1 -2 -2 -2 -1 -0 1 0 -0 -0 -1 -1 -1 -1 -1 -1 -1 -1 -1 -0 0 0 0 0 0 1 1 1 1 1 1 1
-2 -3 -3 -3 -2 -0 -0 -1 -1 1 1 0 -0 -1 -1 -2 -1 -0 -0 -0 -1 -1 -1 -1 -1 -1 -1 -1 -1 -1 -1 -1 -1 -0 -0 -0 0 0 0 0 1 1 1 1
-3 -3 -4 -3 -2 0 -1 -2 -1 -0 0 0 0 0 -1 -1 -1 -1 -1 -1 -1 -1 -1 -1 -1 -1 -1 -1 -2 -2 -1 -1 -1 -1 -1 -0 -0 -0 -0 -0 -0 0 0 0
-3 -3 -3 -2 -0 -1 -1 -0 1 1 0 0 0 0 -0 -1 -1 -1 -1 -1 -1 -2 -2 -2 -2 -2 -2 -2 -2 -2 -2 -2 -2 -1 -1 -1 -1 -1 -1 -1 -1 -0 -0 -0
-4 -5 -4 -4 -3 -2 -1 0 1 1 0 0 0 -0 -1 -1 -1 -2 -2 -2 -2 -2 -2 -2 -2 -2 -2 -2 -2 -2 -2 -2 -2 -2 -2 -2 -2 -1 -1 -1 -1 -1 -1 -1
-4 -5 -5 -4 -4 -2 -0 1 1 1 0 -0 -0 -1 -1 -1 -2 -2 -2 -2 -2 -2 -2 -2 -3 -2 -2 -2 -2 -2 -2 -3 -2 -2 -2 -2 -2 -2 -2 -2 -2 -2 -2 -2
-5 -4 -4 -2 -1 -2 0 2 1 0 0 -0 -1 -1 -1 -1 -2 -2 -2 -2 -2 -2 -2 -3 -3 -3 -2 -2 -2 -2 -2 -3 -3 -3 -3 -3 -3 -3 -3 -3 -2 -2 -2 -2
Wind_Speed
2 2 2 4 3 2 3 3 3 4 3 1 3 5 6 4 2 2 3 2 2 2 3 2 2 2 2 1 1 0 1 1 1 1 1 1 2 2 1 1 2 4 5 6
3 1 4 2 2 2 2 2 2 3 3 1 3 6 6 4 3 3 3 2 1 2 4 3 3 3 2 1 1 2 1 1 1 1 1 1 1 2 2 2 2 4 5 6
3 2 1 2 2 3 2 4 4 3 4 3 2 5 3 1 1 0 1 1 0 1 3 3 3 3 2 2 2 2 2 2 2 1 0 1 1 1 1 2 2 2 4 5
1 1 1 2 1 2 3 3 3 2 1 2 1 3 6 2 2 1 1 1 1 2 3 2 3 3 3 3 3 2 2 2 2 1 1 1 2 3 3 3 3 3 3 5
1 0 2 2 2 2 3 0 1 1 1 1 1 2 6 1 3 4 3 3 2 2 2 2 3 3 3 3 3 3 2 2 2 2 2 3 3 3 2 2 3 3 3 4
1 0 1 1 0 1 2 3 3 3 2 2 3 3 6 4 4 3 3 3 2 3 3 3 3 3 4 4 4 3 3 3 3 3 2 3 4 3 3 3 3 3 3 3
3 1 1 1 2 2 3 4 2 3 2 4 2 3 7 5 4 4 4 3 3 2 3 4 4 4 5 5 5 4 4 4 4 4 4 4 5 5 5 5 5 4 4 4
1 2 2 1 2 2 1 4 4 3 4 3 2 5 6 3 3 2 1 2 2 2 3 4 4 4 4 5 5 5 5 5 4 4 5 5 4 4 4 5 5 5 5 5
2 2 2 1 1 3 3 2 2 4 1 2 5 6 6 1 2 1 0 2 3 3 4 4 4 4 4 5 5 5 5 5 5 5 5 5 5 5 5 5 5 5 5 4
3 1 3 3 2 3 2 4 3 3 2 3 5 5 4 4 4 2 1 3 5 4 5 5 4 4 5 5 6 5 5 5 6 5 5 5 5 5 5 5 5 5 5 5
2 2 2 2 1 3 2 2 3 3 3 3 3 6 4 6 5 4 3 4 5 5 5 5 5 5 5 5 5 6 5 6 6 5 5 6 5 5 5 5 5 5 5 6
1 3 1 3 2 1 2 3 5 3 3 3 3 6 3 2 2 2 3 5 5 5 5 5 5 5 5 6 6 6 6 6 6 6 5 6 5 4 4 5 5 5 6 6
3 3 1 3 2 1 0 2 2 3 3 4 3 6 2 2 2 3 4 5 6 6 6 5 5 5 6 7 7 7 7 7 6 6 5 5 5 4 5 5 6 6 6 6
3 3 4 6 4 3 3 3 3 4 3 4 8 9 7 6 6 6 6 6 6 6 6 6 6 6 7 7 7 7 8 7 7 6 5 5 5 5 5 5 5 6 6 5
3 2 2 3 3 2 5 7 6 8 7 8 8 8 11 7 6 6 6 6 6 6 6 6 7 7 7 7 8 8 8 7 7 6 5 5 5 5 5 4 5 5 5 5
2 2 1 3 2 3 6 8 9 9 8 9 9 12 8 5 3 4 5 5 6 7 7 7 8 7 7 8 8 9 8 8 7 6 5 5 5 4 4 4 4 4 4 4
2 3 1 2 4 4 7 8 9 5 5 6 9 8 4 4 6 6 6 6 6 7 7 8 7 8 8 8 8 8 8 7 6 5 5 4 4 4 4 4 3 3 3 3
5 4 2 0 2 5 6 1 5 5 5 7 6 6 5 6 7 6 5 5 6 7 7 7 7 7 8 7 8 7 7 6 5 5 5 4 4 4 4 3 3 2 2 2
4 5 3 2 2 8 6 2 4 5 5 6 7 7 5 5 6 5 4 4 6 6 6 6 7 7 7 7 7 7 6 5 5 5 5 5 4 3 3 3 3 2 2 1
3 3 4 3 3 6 5 1 3 3 4 4 5 6 3 2 4 6 4 5 6 6 5 5 6 6 6 7 6 6 6 5 5 5 5 5 3 3 3 3 2 2 1 0
3 2 4 4 5 8 5 2 3 3 6 2 4 4 3 4 6 6 6 6 5 5 6 5 6 6 6 6 5 6 6 6 6 5 5 4 3 2 2 1 1 1 0 1
8 6 6 5 5 9 3 6 6 6 1 1 3 4 5 6 6 6 6 6 6 6 6 6 5 6 6 5 5 6 7 7 6 5 4 3 3 2 1 1 1 1 1 2
7 8 6 9 8 3 5 6 4 2 3 3 3 4 4 5 6 6 6 6 6 6 6 5 5 6 6 5 4 6 7 6 6 5 4 4 3 2 1 1 1 1 1 1
4 3 4 5 8 6 7 6 5 4 5 4 4 4 3 5 7 7 7 6 6 6 6 5 5 6 6 6 5 5 6 5 4 4 4 3 3 3 3 2 1 1 1 1
6 6 4 6 7 6 6 8 8 6 4 4 4 4 5 5 6 6 7 7 6 6 5 4 5 6 6 6 6 5 4 4 4 4 3 3 2 2 3 3 2 2 1 1
6 8 8 8 7 6 6 5 5 5 6 6 5 5 5 5 6 6 6 6 6 6 5 5 5 6 6 6 6 5 4 3 2 3 2 2 2 2 2 2 3 4 3 4
Wind_Direction
44 82 209 219 197 183 154 172 226 264 285 285 239 263 277 285 262 247 243 238 247 277 303 327 338 350 9 42 40 331 275 278 194 206 222 232 243 241 237 241 224 203 199 190
56 281 243 208 161 138 160 189 258 297 330 318 264 282 280 267 245 226 214 218 235 340 342 347 360 6 14 12 353 337 308 269 238 233 232 237 249 243 239 240 236 218 205 196
160 239 206 145 120 146 198 201 223 263 334 3 330 302 277 269 236 175 188 167 60 316 313 322 346 348 351 351 327 321 309 299 281 271 337 9 356 332 285 272 263 248 214 203
129 277 169 150 225 172 231 211 186 204 43 316 27 279 281 274 276 258 276 297 301 296 297 313 335 334 330 318 318 308 298 295 288 256 214 204 246 258 255 255 258 266 233 211
262 186 144 171 233 182 206 173 137 186 148 316 309 220 280 274 240 243 240 238 254 281 282 301 315 309 314 322 319 311 312 303 298 271 238 229 253 264 275 273 258 256 248 225
247 242 173 193 16 175 150 70 49 46 81 263 225 196 270 234 232 248 242 247 260 281 301 310 322 327 326 335 335 331 316 309 308 297 266 243 247 256 267 269 259 256 252 235
359 349 358 66 60 32 93 104 38 354 343 249 199 212 250 251 241 228 236 252 269 275 308 325 333 330 329 334 334 333 326 310 308 298 286 260 250 245 242 247 245 251 250 244
80 300 314 49 147 162 161 142 163 204 231 280 282 239 257 264 272 242 229 255 288 304 306 308 308 309 314 319 325 327 323 314 307 296 286 276 262 255 255 252 249 244 245 240
155 252 342 33 69 136 133 144 151 129 95 284 269 285 300 275 311 319 346 342 308 296 301 303 307 310 313 317 313 309 308 308 306 300 295 280 268 258 258 258 257 255 253 249
150 192 313 327 57 28 123 140 108 123 159 270 289 274 259 254 259 270 303 300 300 306 314 314 310 306 307 306 307 304 295 294 296 295 287 291 276 266 263 264 261 261 261 253
124 139 326 2 189 186 122 116 115 118 155 178 267 274 243 218 213 220 254 278 291 302 303 303 304 300 302 310 310 304 302 305 303 296 288 282 280 273 270 267 265 266 269 259
117 122 252 267 269 231 169 171 154 163 220 193 207 271 296 219 212 225 277 293 300 298 298 301 302 305 311 314 313 311 305 301 298 292 286 280 278 278 272 272 272 270 268 265
133 119 51 350 348 12 118 169 157 132 136 177 199 265 317 358 320 296 293 304 310 313 314 318 317 314 312 311 311 311 308 301 298 295 288 280 277 274 274 276 279 277 271 271
119 131 184 206 223 185 226 218 182 158 187 221 230 257 281 291 298 303 304 303 307 310 312 316 315 311 311 312 312 311 310 308 303 298 286 279 278 275 272 273 277 277 275 273
104 176 229 266 283 238 240 236 212 210 209 218 244 251 271 269 269 280 292 301 308 311 314 313 310 310 313 317 318 314 313 312 309 302 289 284 283 282 279 279 278 276 278 284
100 155 171 299 299 261 266 250 229 232 231 238 261 271 272 281 282 284 287 293 299 300 303 306 309 312 313 313 313 313 313 312 310 305 293 295 293 293 292 286 283 279 284 293
143 140 139 275 314 330 276 239 210 206 208 198 229 250 292 298 287 279 279 283 284 290 296 301 302 303 304 305 306 305 303 305 304 301 298 299 301 303 301 296 289 289 294 292
150 137 144 279 20 251 251 181 179 194 235 221 240 267 276 277 286 272 256 256 276 287 293 296 299 302 305 308 311 312 311 309 305 306 304 305 310 306 305 302 296 296 294 282
158 146 141 148 253 280 287 226 173 188 264 227 229 258 281 310 318 293 250 252 266 275 282 289 295 299 304 308 314 318 317 315 311 310 307 304 302 301 303 300 304 312 299 296
90 111 136 152 206 248 259 198 176 120 286 244 207 240 271 2 316 292 310 299 290 293 297 300 305 307 307 311 320 324 322 320 310 310 304 300 297 295 291 292 308 315 293 278
130 129 176 190 229 263 252 192 132 166 252 255 205 224 212 216 240 280 307 306 300 297 298 304 307 306 305 314 325 322 317 312 309 311 308 312 310 296 292 323 338 348 66 93
173 172 187 170 210 253 187 144 183 219 251 225 229 224 228 250 274 290 298 301 305 306 304 306 307 305 310 317 323 319 312 312 320 323 322 326 329 332 2 27 16 47 81 92
199 192 188 197 217 254 184 206 227 215 243 245 237 246 241 266 279 288 291 293 296 298 299 299 298 303 310 312 312 305 307 319 327 328 329 333 337 350 30 51 51 53 78 97
233 182 190 248 260 254 245 248 253 238 239 248 248 254 246 261 275 284 288 291 294 296 296 299 301 302 305 308 307 298 307 321 328 329 332 347 6 21 32 32 44 65 83 95
207 171 199 249 267 285 262 237 243 250 250 257 261 253 245 252 270 276 283 286 287 290 292 292 290 289 294 304 306 307 316 330 338 343 352 3 14 38 40 36 37 46 35 72
191 186 193 230 224 214 249 241 228 230 243 245 255 272 265 248 261 272 277 279 281 286 291 294 294 294 298 304 306 312 323 331 341 342 346 355 11 31 50 59 48 47 52 48
Height
1494 1498 1501 1500 1500 1501 1502 1504 1505 1504 1500 1501 1499 1498 1494 1494 1493 1494 1494 1495 1495 1496 1497 1497 1498 1499 1499 1500 1501 1501 1501 1502 1503 1504 1505 1505 1506 1507 1508 1509 1510 1511 1513 1514
1498 1501 1499 1499 1499 1500 1502 1504 1505 1503 1500 1499 1499 1497 1493 1492 1491 1492 1492 1493 1494 1494 1494 1495 1495 1496 1496 1497 1498 1498 1499 1499 1500 1501 1502 1503 1504 1504 1505 1506 1507 1507 1508 1510
1498 1500 1497 1498 1499 1501 1502 1504 1504 1505 1503 1500 1500 1495 1492 1491 1490 1491 1491 1492 1492 1493 1493 1492 1492 1493 1494 1495 1495 1496 1496 1497 1498 1499 1499 1500 1501 1501 1501 1502 1502 1503 1505 1506
1499 1498 1497 1498 1500 1499 1502 1501 1501 1503 1505 1507 1505 1503 1492 1490 1490 1490 1490 1491 1491 1492 1492 1491 1491 1491 1492 1492 1493 1493 1494 1494 1495 1495 1496 1496 1496 1496 1496 1497 1498 1499 1500 1501
1500 1498 1498 1499 1499 1499 1501 1500 1501 1502 1506 1509 1508 1508 1496 1491 1490 1489 1489 1490 1490 1490 1490 1490 1490 1490 1490 1490 1490 1490 1490 1491 1491 1492 1492 1493 1493 1493 1493 1494 1494 1495 1496 1497
1499 1498 1498 1498 1498 1498 1499 1501 1503 1506 1507 1509 1507 1507 1498 1493 1489 1487 1487 1488 1488 1489 1489 1488 1488 1488 1488 1487 1487 1487 1487 1487 1487 1488 1488 1489 1489 1489 1489 1489 1489 1490 1491 1492
1500 1499 1498 1498 1499 1500 1500 1505 1511 1510 1513 1509 1505 1506 1497 1488 1486 1486 1486 1486 1487 1487 1486 1486 1486 1485 1484 1484 1484 1483 1483 1483 1483 1484 1484 1484 1484 1484 1484 1484 1485 1485 1486 1486
1503 1503 1500 1499 1500 1501 1503 1505 1511 1510 1511 1509 1507 1503 1492 1487 1485 1484 1485 1485 1485 1484 1485 1484 1484 1483 1482 1482 1481 1480 1480 1479 1479 1479 1479 1479 1480 1479 1479 1480 1480 1481 1481 1481
1505 1504 1501 1499 1499 1500 1503 1507 1508 1515 1518 1516 1507 1501 1491 1485 1484 1484 1484 1484 1483 1483 1483 1482 1481 1481 1480 1479 1478 1477 1476 1475 1475 1474 1474 1474 1475 1475 1475 1475 1475 1475 1476 1476
1503 1507 1503 1501 1500 1501 1503 1506 1511 1513 1513 1510 1505 1502 1493 1487 1485 1484 1483 1483 1481 1480 1480 1479 1478 1478 1477 1476 1475 1474 1473 1471 1470 1470 1469 1469 1469 1470 1470 1470 1470 1470 1470 1471
1502 1507 1506 1504 1503 1503 1505 1508 1510 1515 1516 1515 1508 1496 1485 1484 1482 1483 1482 1482 1481 1479 1478 1477 1476 1476 1474 1473 1471 1470 1468 1467 1466 1465 1465 1464 1464 1464 1465 1465 1465 1465 1465 1465
1502 1507 1510 1506 1504 1503 1503 1505 1509 1511 1515 1519 1516 1499 1483 1481 1481 1481 1481 1480 1479 1478 1477 1476 1474 1473 1471 1469 1467 1465 1463 1462 1461 1460 1459 1459 1459 1459 1459 1459 1459 1459 1459 1459
1502 1506 1509 1504 1507 1506 1505 1506 1508 1511 1516 1518 1512 1494 1483 1481 1481 1481 1480 1479 1478 1476 1474 1473 1471 1469 1467 1465 1463 1461 1459 1458 1456 1455 1454 1454 1453 1453 1453 1453 1454 1454 1454 1454
1499 1506 1506 1502 1499 1503 1504 1505 1507 1508 1511 1511 1503 1490 1483 1482 1481 1480 1478 1477 1476 1475 1473 1471 1469 1466 1464 1462 1460 1457 1455 1453 1452 1450 1449 1448 1448 1448 1448 1448 1448 1448 1448 1448
1500 1506 1507 1505 1503 1502 1502 1501 1503 1503 1502 1501 1492 1491 1481 1480 1480 1478 1477 1475 1474 1472 1470 1468 1466 1463 1461 1458 1456 1453 1451 1449 1448 1446 1444 1443 1443 1444 1444 1443 1443 1443 1443 1443
1501 1506 1507 1504 1502 1502 1499 1496 1497 1497 1497 1496 1492 1487 1479 1479 1478 1477 1475 1474 1472 1470 1468 1466 1463 1460 1457 1454 1452 1449 1447 1445 1443 1442 1440 1440 1439 1439 1439 1439 1439 1439 1438 1438
1503 1506 1506 1505 1504 1499 1495 1488 1489 1490 1489 1489 1488 1482 1479 1478 1477 1475 1473 1472 1470 1468 1466 1464 1461 1458 1455 1451 1448 1445 1443 1441 1439 1438 1437 1436 1436 1435 1435 1435 1434 1434 1434 1434
1502 1505 1509 1509 1504 1499 1483 1483 1483 1485 1485 1484 1481 1479 1478 1476 1474 1472 1471 1469 1468 1466 1464 1461 1458 1455 1452 1448 1445 1442 1440 1437 1436 1435 1433 1433 1432 1431 1431 1430 1430 1430 1430 1430
1497 1502 1508 1510 1507 1495 1483 1482 1483 1484 1481 1477 1478 1476 1476 1474 1471 1468 1468 1467 1466 1464 1461 1458 1455 1452 1449 1445 1442 1439 1436 1434 1433 1432 1430 1429 1428 1427 1427 1426 1426 1426 1427 1427
1499 1501 1508 1510 1503 1492 1479 1479 1479 1482 1480 1473 1473 1473 1474 1474 1474 1468 1465 1464 1462 1460 1458 1456 1452 1450 1446 1443 1439 1436 1433 1432 1430 1429 1427 1426 1425 1424 1423 1423 1423 1423 1424 1424
1501 1505 1507 1508 1505 1489 1478 1477 1479 1483 1475 1470 1469 1470 1471 1471 1470 1467 1464 1462 1460 1458 1455 1453 1450 1447 1444 1440 1437 1434 1431 1429 1427 1426 1425 1424 1423 1422 1421 1420 1421 1421 1421 1422
1494 1500 1504 1505 1503 1486 1475 1476 1477 1472 1468 1468 1467 1468 1468 1467 1465 1464 1462 1460 1458 1455 1452 1450 1447 1444 1441 1438 1435 1432 1429 1427 1425 1423 1422 1421 1420 1419 1419 1419 1419 1419 1419 1420
1488 1486 1487 1486 1479 1471 1470 1468 1468 1468 1467 1466 1466 1465 1465 1463 1462 1460 1459 1457 1455 1452 1450 1447 1445 1442 1439 1436 1434 1431 1428 1426 1424 1422 1420 1418 1417 1417 1417 1417 1417 1417 1418 1419
1482 1480 1482 1481 1471 1467 1466 1465 1465 1465 1465 1464 1464 1463 1462 1461 1459 1458 1456 1454 1451 1449 1447 1445 1442 1439 1437 1434 1432 1430 1427 1425 1422 1420 1418 1416 1415 1415 1415 1416 1416 1417 1417 1418
1473 1477 1478 1475 1467 1464 1461 1461 1461 1461 1461 1461 1461 1460 1459 1458 1456 1455 1453 1451 1449 1446 1445 1442 1440 1437 1435 1433 1430 1428 1426 1423 1420 1418 1417 1416 1415 1414 1414 1415 1416 1416 1417 1418
1466 1467 1469 1464 1459 1460 1457 1457 1458 1458 1457 1457 1457 1456 1455 1455 1453 1452 1450 1448 1446 1444 1442 1440 1437 1435 1432 1430 1428 1426 1424 1422 1420 1418 1416 1415 1415 1414 1414 1415 1416 1417 1418 1418